Date String (YYYY-MM-DD hh:mm:ss) UTC,Instrument flags,Ambient pressure (hPa),Sample flow (lpm),Bypass flow (lpm),Sample temperature (°C),Ambient temperature (°C),ASC tube jacket temperature (°C),LED temperature (°C),Box temperature (°C),Sample RH (%),Span deviation,Mass concentration (μg/m³),Mass concentration (μg/m³),Mass concentration (μg/m³)
DateTimeUTC,F1_M11,P_M11,Q1_M11,Q2_M11,T1_M11,T2_M11,T3_M11,T4_M11,T5_M11,U1_M11,ZSPAN_M11,X2_M11,X0_M11,X1_M11
2022-03-17 13:00:00,,0826.2,4.99,0.00,22.4,21.6,00.0,31.5,24.1,18.8,0000.0,0000.71,0000.74,0000.66
2022-03-17 13:01:00,,0826.2,5.01,0.00,22.4,21.6,00.0,31.5,24.1,18.8,0000.0,0000.76,0000.83,0000.68
2022-03-17 13:02:00,,0826.2,5.00,0.00,22.3,21.5,00.0,31.5,24.1,18.9,0000.0,0000.79,0000.88,0000.70
2022-03-17 13:03:00,,0826.2,4.99,0.00,22.3,21.5,00.0,31.4,24.0,18.9,0000.0,0000.81,0000.90,0000.71
2022-03-17 13:04:00,,0826.3,5.00,0.00,22.3,21.5,00.0,31.4,24.0,19.0,0000.0,0000.83,0000.92,0000.73
2022-03-17 13:05:00,,0826.4,5.00,0.00,22.3,21.5,00.0,31.4,24.1,20.7,0000.0,0000.84,0000.94,0000.75
2022-03-17 13:06:00,,0826.4,5.00,0.00,22.3,21.6,00.0,31.4,24.1,22.5,0000.0,0000.86,0000.95,0000.76
2022-03-17 13:07:00,,0826.4,5.01,0.00,22.4,22.2,00.0,31.4,24.3,20.8,0000.0,0000.89,0000.97,0000.79
2022-03-17 13:08:00,,0826.4,5.00,0.00,22.6,23.0,00.0,31.5,24.5,19.3,0000.0,0000.91,0001.00,0000.81
2022-03-17 13:09:00,,0826.5,4.99,0.00,22.7,23.2,00.0,31.5,24.7,18.9,0000.0,0000.94,0001.09,0000.83
2022-03-17 13:10:00,,0826.5,5.01,0.00,22.7,23.0,00.0,31.5,24.7,18.7,0000.0,0000.95,0001.22,0000.84
2022-03-17 13:11:00,,0826.4,5.00,0.00,22.7,22.7,00.0,31.6,24.6,18.6,0000.0,0000.94,0001.23,0000.85
2022-03-17 13:12:00,,0826.5,5.00,0.00,22.7,22.5,00.0,31.6,24.5,18.6,0000.0,0000.95,0001.25,0000.86
2022-03-17 13:13:00,,0826.5,5.00,0.00,22.7,22.4,00.0,31.6,24.5,18.6,0000.0,0000.94,0001.21,0000.87
2022-03-17 13:14:00,,0826.5,5.00,0.00,22.7,22.3,00.0,31.6,24.5,18.6,0000.0,0000.94,0001.22,0000.88
2022-03-17 13:15:00,,0826.5,5.00,0.00,22.7,22.2,00.0,31.6,24.5,18.6,0000.0,0000.96,0001.24,0000.90
2022-03-17 13:16:00,,0826.5,4.99,0.00,22.7,22.1,00.0,31.6,24.5,18.6,0000.0,0000.97,0001.24,0000.91
2022-03-17 13:17:00,,0826.5,4.99,0.00,22.6,22.1,00.0,31.6,24.4,18.6,0000.0,0000.98,0001.25,0000.92
2022-03-17 13:18:00,,0826.5,5.00,0.00,22.6,22.0,00.0,31.6,24.4,18.6,0000.0,0000.99,0001.27,0000.93
2022-03-17 13:19:00,,0826.5,5.00,0.00,22.6,22.0,00.0,31.6,24.4,18.6,0000.0,0000.99,0001.27,0000.94
2022-03-17 13:20:00,,0826.5,5.02,0.00,22.6,22.0,00.0,31.6,24.4,18.6,0000.0,0000.99,0001.23,0000.94
2022-03-17 13:21:00,,0826.6,5.00,0.00,22.6,22.0,00.0,31.6,24.4,18.6,0000.0,0000.98,0001.08,0000.94
2022-03-17 13:22:00,,0826.6,5.00,0.00,22.6,21.9,00.0,31.6,24.4,18.6,0000.0,0000.97,0001.06,0000.93
2022-03-17 13:23:00,,0826.6,5.00,0.00,22.6,21.9,00.0,31.6,24.4,18.6,0000.0,0000.95,0000.98,0000.93
2022-03-17 13:24:00,,0826.6,4.99,0.00,22.6,21.9,00.0,31.6,24.3,18.6,0000.0,0000.93,0000.98,0000.91
2022-03-17 13:25:00,,0826.7,5.00,0.00,22.6,21.9,00.0,31.6,24.3,18.5,0000.0,0000.94,0000.99,0000.89
2022-03-17 13:26:00,,0826.6,5.00,0.00,22.6,21.8,00.0,31.5,24.3,18.5,0000.0,0000.93,0001.00,0000.87
2022-03-17 13:27:00,,0826.7,5.00,0.00,22.5,21.8,00.0,31.5,24.3,18.6,0000.0,0000.92,0001.01,0000.85
2022-03-17 13:28:00,,0826.7,4.99,0.00,22.5,21.8,00.0,31.5,24.3,18.6,0000.0,0000.92,0001.02,0000.84
2022-03-17 13:29:00,,0826.6,5.00,0.00,22.5,21.7,00.0,31.5,24.2,18.6,0000.0,0000.91,0001.01,0000.83
2022-03-17 13:30:00,,0826.7,5.02,0.00,22.5,21.7,00.0,31.5,24.2,18.6,0000.0,0000.89,0001.00,0000.81
2022-03-17 13:31:00,,0826.7,4.99,0.00,22.4,21.6,00.0,31.5,24.2,18.6,0000.0,0000.86,0000.98,0000.79
2022-03-17 13:32:00,,0826.7,5.00,0.00,22.4,21.6,00.0,31.5,24.2,18.6,0000.0,0000.85,0000.97,0000.77
2022-03-17 13:33:00,,0826.7,5.00,0.00,22.4,21.6,00.0,31.5,24.1,18.6,0000.0,0000.83,0000.94,0000.75
2022-03-17 13:34:00,,0826.7,5.01,0.00,22.4,21.6,00.0,31.5,24.1,18.6,0000.0,0000.80,0000.92,0000.72
2022-03-17 13:35:00,,0826.7,4.99,0.00,22.4,21.8,00.0,31.5,24.1,18.6,0000.0,0000.77,0000.89,0000.70
2022-03-17 13:36:00,,0826.8,5.01,0.00,22.5,22.5,00.0,31.5,24.4,18.5,0000.0,0000.72,0000.82,0000.67
2022-03-17 13:37:00,,0827.0,5.00,0.00,22.6,23.2,00.0,31.5,24.6,18.3,0000.0,0000.66,0000.76,0000.63
2022-03-17 13:38:00,,0826.9,4.99,0.00,22.7,23.1,00.0,31.6,24.7,18.2,0000.0,0000.64,0000.73,0000.61
2022-03-17 13:39:00,,0826.8,5.00,0.00,22.8,22.9,00.0,31.6,24.7,18.2,0000.0,0000.60,0000.69,0000.58
2022-03-17 13:40:00,,0827.0,5.01,0.00,22.8,22.7,00.0,31.6,24.6,18.1,0000.0,0000.57,0000.65,0000.54
2022-03-17 13:41:00,,0827.0,5.00,0.00,22.7,22.6,00.0,31.6,24.6,18.1,0000.0,0000.55,0000.63,0000.52
2022-03-17 13:42:00,,0826.9,5.00,0.00,22.7,22.4,00.0,31.6,24.6,18.1,0000.0,0000.53,0000.63,0000.50
2022-03-17 13:43:00,,0826.9,5.00,0.00,22.7,22.3,00.0,31.6,24.5,18.1,0000.0,0000.52,0000.64,0000.49
2022-03-17 13:44:00,,0826.9,5.00,0.00,22.7,22.2,00.0,31.6,24.5,18.1,0000.0,0000.51,0000.61,0000.48
2022-03-17 13:45:00,,0827.0,5.00,0.00,22.7,22.2,00.0,31.6,24.5,18.2,0000.0,0000.52,0000.63,0000.49
2022-03-17 13:46:00,,0826.9,5.01,0.00,22.7,22.1,00.0,31.6,24.5,18.2,0000.0,0000.54,0000.66,0000.50
2022-03-17 13:47:00,,0826.9,5.00,0.00,22.7,22.0,00.0,31.6,24.4,18.2,0000.0,0000.56,0000.69,0000.53
2022-03-17 13:48:00,,0827.0,5.00,0.00,22.7,22.0,00.0,31.6,24.4,18.2,0000.0,0000.59,0000.71,0000.55
2022-03-17 13:49:00,,0827.0,5.00,0.00,22.6,22.0,00.0,31.6,24.4,18.2,0000.0,0000.60,0000.72,0000.57
2022-03-17 13:50:00,,0827.0,5.01,0.00,22.6,21.9,00.0,31.6,24.4,18.2,0000.0,0000.65,0000.78,0000.60
2022-03-17 13:51:00,,0827.0,5.00,0.00,22.6,21.9,00.0,31.6,24.4,18.3,0000.0,0000.70,0000.87,0000.64
2022-03-17 13:52:00,,0827.1,5.00,0.00,22.6,21.9,00.0,31.6,24.3,18.3,0000.0,0000.74,0000.94,0000.67
2022-03-17 13:53:00,,0827.0,5.00,0.00,22.6,21.8,00.0,31.6,24.3,18.3,0000.0,0000.80,0001.03,0000.70
2022-03-17 13:54:00,,0827.1,5.00,0.00,22.6,21.8,00.0,31.6,24.3,18.3,0000.0,0000.86,0001.26,0000.75
2022-03-17 13:55:00,,0827.1,5.01,0.00,22.5,21.8,00.0,31.6,24.3,18.3,0000.0,0000.96,0001.61,0000.81
2022-03-17 13:56:00,,0827.1,5.00,0.00,22.5,21.8,00.0,31.6,24.3,18.3,0000.0,0001.05,0002.23,0000.87
2022-03-17 13:57:00,,0827.1,5.02,0.00,22.5,21.7,00.0,31.5,24.2,18.3,0000.0,0001.10,0002.45,0000.91
2022-03-17 13:58:00,,0827.1,5.00,0.00,22.5,21.7,00.0,31.5,24.2,18.3,0000.0,0001.18,0002.79,0000.96
2022-03-17 13:59:00,,0827.2,5.00,0.00,22.4,21.7,00.0,31.5,24.2,18.4,0000.0,0001.26,0003.23,0001.01
